Palestine, IL

5:35 PM CST on December 02, 2016 (GMT -0600)
Robinson Municipal

Weather History for KRSV - April, 2014

Change the Weather History Date:

Wednesday, April 30, 2014

  Actual Average (KLWV) Record (KLWV)
Temperature  
Mean Temperature 52 °F 61 °F  
Max Temperature 58 °F 72 °F 89 °F (2007)
Min Temperature 46 °F 51 °F 39 °F (2008)
Degree Days  
Heating Degree Days 13 5  
Month to date heating degree days 295  
Since 1 July heating degree days 4591  
Cooling Degree Days 0 1  
Month to date cooling degree days 24  
Year to date cooling degree days 26  
Growing Degree Days 2 (Base 50)    
Moisture  
Dew Point 46 °F    
Average Humidity 79    
Maximum Humidity 92    
Minimum Humidity 63    
Precipitation  
Precipitation 0.00 in 0.22 in 1.96 in (1998)
Month to date precipitation 4.16  
Year to date precipitation 11.98  
Sea Level Pressure  
Sea Level Pressure 29.84 in    
Wind  
Wind Speed 7 mph (WSW)    
Max Wind Speed 18 mph    
Max Gust Speed 24 mph    
Visibility 10 miles    
Events Rain    
T = Trace of Precipitation, MM = Missing Value Source: NWS Daily Summary

Daily Weather History Graph

Daily Weather History Graph

Search for Another Location

Airport or City:

Trip Planner

Search our weather history database for the weather conditions in past years. The results will help you decide how hot, cold, wet, or windy it might be!

Date:

Astronomy

Apr. 30, 2014 Rise Set
Actual Time 5:53 AM CDT 7:42 PM CDT
Civil Twilight 5:25 AM CDT 8:11 PM CDT
Nautical Twilight 4:50 AM CDT 8:46 PM CDT
Astronomical Twilight 4:12 AM CDT 9:23 PM CDT
Moon 6:54 AM CDT (4/30) 9:20 PM CDT (4/30)
Length of Visible Light 14h 46m
Length of Day
13h 48m
New Moon, 2% of the Moon is Illuminated
Apr 30
New Moon
May 6
First Quarter
May 14
Full
May 21
Last Quarter
May 28
New

Hourly Weather History & Observations

Time (CDT) Temp. Windchill Dew Point Humidity Pressure Visibility Wind Dir Wind Speed Gust Speed Precip Events Conditions
12:15 AM 55.9 °F - 50.4 °F 82% 29.76 in 10.0 mi WSW 4.6 mph - N/A   Overcast
12:35 AM 56.1 °F - 48.7 °F 76% 29.76 in 10.0 mi WSW 5.8 mph - N/A   Mostly Cloudy
12:55 AM 56.5 °F - 48.4 °F 74% 29.76 in 10.0 mi West 10.4 mph - N/A   Mostly Cloudy
1:15 AM 55.0 °F - 48.4 °F 78% 29.76 in 10.0 mi WSW 6.9 mph - N/A   Scattered Clouds
1:18 AM 55.4 °F - 48.2 °F 77% 29.76 in 10.0 mi WSW 6.9 mph - N/A   Clear
1:35 AM 54.7 °F - 48.6 °F 80% 29.76 in 10.0 mi WSW 6.9 mph - N/A   Clear
1:55 AM 54.1 °F - 48.4 °F 81% 29.76 in 10.0 mi SSW 3.5 mph - N/A   Scattered Clouds
2:15 AM 52.9 °F - 49.3 °F 88% 29.76 in 10.0 mi SW 4.6 mph - N/A   Mostly Cloudy
2:35 AM 53.4 °F - 49.1 °F 85% 29.76 in 10.0 mi Calm Calm - N/A   Mostly Cloudy
2:55 AM 52.5 °F - 48.9 °F 88% 29.76 in 10.0 mi Calm Calm - N/A   Mostly Cloudy
3:15 AM 51.8 °F - 49.1 °F 90% 29.76 in 10.0 mi SW 3.5 mph - N/A   Mostly Cloudy
3:35 AM 50.0 °F - 47.5 °F 91% 29.78 in 10.0 mi SSW 5.8 mph - N/A   Scattered Clouds
3:55 AM 52.2 °F - 47.3 °F 83% 29.78 in 10.0 mi WSW 9.2 mph - N/A   Mostly Cloudy
4:15 AM 52.0 °F - 45.1 °F 77% 29.77 in 10.0 mi West 8.1 mph - N/A   Scattered Clouds
4:35 AM 50.9 °F - 44.6 °F 79% 29.78 in 10.0 mi SW 3.5 mph - N/A   Clear
4:55 AM 48.6 °F - 44.6 °F 86% 29.78 in 10.0 mi SW 4.6 mph - N/A   Clear
5:15 AM 47.5 °F - 45.0 °F 91% 29.78 in 10.0 mi SW 5.8 mph - N/A   Clear
5:35 AM 47.8 °F - 45.0 °F 90% 29.78 in 10.0 mi Calm Calm - N/A   Clear
5:55 AM 48.2 °F - 44.6 °F 87% 29.79 in 10.0 mi West 3.5 mph - N/A   Clear
6:15 AM 48.6 °F - 44.8 °F 87% 29.79 in 10.0 mi WSW 4.6 mph - N/A   Clear
6:35 AM 49.3 °F - 45.0 °F 85% 29.79 in 10.0 mi Calm Calm - N/A   Clear
6:55 AM 50.0 °F - 46.4 °F 87% 29.79 in 10.0 mi Calm Calm - N/A   Clear
7:15 AM 52.2 °F - 45.9 °F 79% 29.79 in 10.0 mi SSW 5.8 mph - N/A   Clear
7:35 AM 53.1 °F - 45.9 °F 77% 29.80 in 10.0 mi SW 8.1 mph - N/A   Clear
7:55 AM 53.6 °F - 46.4 °F 77% 29.79 in 10.0 mi SW 6.9 mph - N/A   Clear
8:15 AM 54.5 °F - 46.9 °F 76% 29.80 in 10.0 mi SW 9.2 mph - N/A   Clear
8:35 AM 55.4 °F - 47.1 °F 74% 29.80 in 10.0 mi WSW 6.9 mph - N/A   Clear
8:55 AM 55.9 °F - 47.5 °F 73% 29.80 in 7.0 mi WSW 8.1 mph - N/A   Clear
9:15 AM 56.5 °F - 47.7 °F 72% 29.81 in 10.0 mi WSW 9.2 mph - N/A   Clear
9:35 AM 56.5 °F - 47.7 °F 72% 29.81 in 10.0 mi West 10.4 mph - N/A   Scattered Clouds
9:55 AM 56.3 °F - 47.7 °F 73% 29.81 in 10.0 mi WSW 5.8 mph - N/A   Mostly Cloudy
10:15 AM 57.4 °F - 48.6 °F 72% 29.81 in 10.0 mi WSW 8.1 mph - N/A   Mostly Cloudy
10:35 AM 57.4 °F - 48.2 °F 71% 29.81 in 10.0 mi WSW 9.2 mph - N/A   Overcast
10:55 AM 58.1 °F - 48.2 °F 70% 29.82 in 10.0 mi WSW 9.2 mph - N/A   Overcast
11:15 AM 55.8 °F - 48.9 °F 78% 29.83 in 7.0 mi WSW 10.4 mph - N/A   Overcast
11:35 AM 57.6 °F - 49.6 °F 75% 29.83 in 10.0 mi WSW 11.5 mph - N/A   Overcast
11:55 AM 54.5 °F - 50.2 °F 85% 29.83 in 7.0 mi WNW 9.2 mph - N/A   Overcast
12:15 PM 55.6 °F - 50.4 °F 83% 29.84 in 10.0 mi West 15.0 mph 20.7 mph N/A   Overcast
12:35 PM 54.5 °F - 51.8 °F 91% 29.84 in 7.0 mi West 10.4 mph - N/A   Overcast
12:55 PM 54.0 °F - 51.1 °F 90% 29.84 in 10.0 mi West 12.7 mph - N/A Rain Light Rain
1:15 PM 53.1 °F - 50.7 °F 92% 29.85 in 5.0 mi West 11.5 mph - N/A Rain Light Rain
1:35 PM 53.8 °F - 50.7 °F 89% 29.86 in 3.0 mi West 18.4 mph 21.9 mph N/A   Overcast
1:55 PM 52.5 °F - 49.1 °F 88% 29.86 in 10.0 mi West 17.3 mph 24.2 mph N/A   Overcast
2:15 PM 53.2 °F - 49.3 °F 86% 29.87 in 10.0 mi West 16.1 mph 21.9 mph N/A   Overcast
2:35 PM 52.5 °F - 47.7 °F 84% 29.88 in 10.0 mi West 17.3 mph 21.9 mph N/A   Overcast
2:55 PM 51.8 °F - 46.4 °F 82% 29.89 in 10.0 mi WNW 13.8 mph 20.7 mph N/A   Overcast
3:15 PM 53.2 °F - 46.8 °F 79% 29.88 in 10.0 mi West 12.7 mph - N/A   Overcast
3:35 PM 54.3 °F - 46.0 °F 74% 29.88 in 10.0 mi West 12.7 mph 17.3 mph N/A   Overcast
3:55 PM 54.0 °F - 45.0 °F 72% 29.89 in 10.0 mi West 13.8 mph 18.4 mph N/A   Overcast
4:15 PM 53.1 °F - 44.1 °F 71% 29.89 in 10.0 mi WNW 12.7 mph 18.4 mph N/A   Overcast
4:55 PM 52.3 °F - 42.4 °F 69% 29.89 in 10.0 mi WNW 12.7 mph - N/A   Overcast
5:15 PM 52.3 °F - 41.7 °F 67% 29.90 in 10.0 mi West 15.0 mph - N/A   Overcast
5:35 PM 52.5 °F - 41.9 °F 67% 29.90 in 10.0 mi West 10.4 mph - N/A   Overcast
5:55 PM 52.9 °F - 40.6 °F 63% 29.90 in 10.0 mi WNW 11.5 mph - N/A   Overcast
6:15 PM 52.3 °F - 40.8 °F 65% 29.91 in 10.0 mi West 12.7 mph - N/A   Overcast
6:35 PM 52.2 °F - 40.3 °F 64% 29.91 in 10.0 mi West 10.4 mph - N/A   Overcast
6:55 PM 52.5 °F - 40.6 °F 64% 29.92 in 10.0 mi West 9.2 mph - N/A   Overcast
7:15 PM 51.8 °F - 41.0 °F 67% 29.92 in 10.0 mi SW 8.1 mph - N/A   Scattered Clouds
7:35 PM 50.5 °F - 41.0 °F 70% 29.93 in 10.0 mi SW 6.9 mph - N/A   Clear
8:15 PM 48.7 °F - 43.0 °F 80% 29.93 in 10.0 mi SSW 4.6 mph - N/A   Mostly Cloudy
8:35 PM 47.5 °F - 42.1 °F 82% 29.93 in 10.0 mi SSW 5.8 mph - N/A   Scattered Clouds
8:55 PM 46.6 °F - 41.9 °F 84% 29.93 in 10.0 mi South 5.8 mph - N/A   Scattered Clouds
9:15 PM 47.3 °F - 42.4 °F 83% 29.93 in 10.0 mi SSW 4.6 mph - N/A   Mostly Cloudy
9:35 PM 48.0 °F - 42.4 °F 81% 29.94 in 10.0 mi SSW 5.8 mph - N/A   Overcast
10:15 PM 46.6 °F - 41.9 °F 84% 29.93 in 10.0 mi South 6.9 mph - N/A   Scattered Clouds
10:35 PM 46.4 °F 42.9 °F 41.5 °F 83% 29.94 in 10.0 mi SSW 6.9 mph - N/A   Clear
10:55 PM 46.4 °F 42.4 °F 41.4 °F 83% 29.93 in 10.0 mi SSW 8.1 mph - N/A   Clear
11:15 PM 46.2 °F 42.7 °F 41.2 °F 83% 29.92 in 10.0 mi SSW 6.9 mph - N/A   Clear
11:35 PM 46.4 °F 42.4 °F 41.4 °F 83% 29.92 in 10.0 mi SSW 8.1 mph - N/A   Clear
11:55 PM 46.6 °F - 41.4 °F 82% 29.91 in 10.0 mi SSW 6.9 mph - N/A   Scattered Clouds